This is the latest recevied weather packets stored in our database for station/object K2ATL. If no packets are shown the sender has not sent any weather packets the latest 10 day(s).
| Time | Temp. | Humidity | Pressure | Rain* | Wind** | Luminosity | Snow |
|---|---|---|---|---|---|---|---|
| 1787680810 | 26.11° C | 56% | 1104.7 hPa | 0 mm | - | 942 W/m² | - |
| 1787680505 | 25° C | 62% | 1105 hPa | 0 mm | - | 932 W/m² | - |
| 1787680203 | 25.56° C | 56% | 1104.9 hPa | 0 mm | - | 926 W/m² | - |
| 1787679897 | 25.56° C | 60% | 1104.9 hPa | 0 mm | - | 931 W/m² | - |
| 1787679597 | 25.56° C | 63% | 1104.9 hPa | 0 mm | - | 931 W/m² | - |
| 1787679293 | 25.56° C | 57% | 1104.9 hPa | 0 mm | - | 920 W/m² | - |
| 1787678989 | 25° C | 56% | 1105 hPa | 0 mm | - | 913 W/m² | - |
| 1787678688 | 25.56° C | 62% | 1104.8 hPa | 0 mm | - | 909 W/m² | - |
| 1787678383 | 26.11° C | 57% | 1105 hPa | 0 mm | - | 909 W/m² | - |
| 1787678079 | 26.11° C | 58% | 1105 hPa | 0 mm | - | 903 W/m² | - |
| 1787677778 | 25.56° C | 61% | 1105.1 hPa | 0 mm | - | 896 W/m² | - |
| 1787677473 | 25° C | 57% | 1105 hPa | 0 mm | - | 892 W/m² | - |
| 1787676866 | 24.44° C | 62% | 1105.3 hPa | 0 mm | - | 883 W/m² | - |
| 1787676561 | 25° C | 54% | 1105.3 hPa | 0 mm | - | 877 W/m² | - |
| 1787676259 | 23.89° C | 58% | 1105.2 hPa | 0 mm | - | 872 W/m² | - |
| 1787675959 | 25° C | 60% | 1105.5 hPa | 0 mm | - | 866 W/m² | - |
| 1787675655 | 24.44° C | 59% | 1105.5 hPa | 0 mm | - | 857 W/m² | - |
| 1787675353 | 24.44° C | 64% | 1105.4 hPa | 0 mm | - | 852 W/m² | - |
| 1787675048 | 23.89° C | 69% | 1105.5 hPa | 0 mm | - | 839 W/m² | - |
| 1787674743 | 23.89° C | 59% | 1105.6 hPa | 0 mm | - | 830 W/m² | - |
| 1787674439 | 25.56° C | 59% | 1105.7 hPa | 0 mm | - | 820 W/m² | - |
| 1787674138 | 24.44° C | 63% | 1105.5 hPa | 0 mm | - | 815 W/m² | - |
| 1787673834 | 23.89° C | 62% | 1105.5 hPa | 0 mm | - | 801 W/m² | - |
| 1787673529 | 23.89° C | 61% | 1105.7 hPa | 0 mm | - | 794 W/m² | - |
| 1787673228 | 22.78° C | 61% | 1105.8 hPa | 0 mm | - | 783 W/m² | - |
* Rain latest hour (hover to see other rain measurements)
** Current wind speed in m/s (hover to see current wind gust speed)